STARLINK-5929 (55959 NORAD) Tracking and Keplerian Element Data

This shows tracking and keplerian element data for the satellite.

Feedback or suggestion? Click here.




ElementValue
Catalog55959
NameSTARLINK-5929
Epoch Orbit839
Epoch Day126.86615862
Epoch Year2023
RAAN40.2042
Inclination70.0016
Eccentricity0.0003728
Argument of Perigee268.0557
Mean Anonmoly92.0212
Mean Motion15.69938589
Decay Rate2.512E-05
L11 55959U 23037AX 23126.86615862 .00002512 00000+0 22644-4 0 9995
L22 55959 70.0016 40.2042 0003728 268.0557 92.0212 15.69938589 8393



Live tracking and technical data element details for STARLINK-5929 (NORAD 55959). STARLINK-5929 can be tracked NOW for your location showing map with azimuth and elevation plus other details from your city location.







IsCatalogInMostPopularTable: catalog: 55959, numindb: 9
Update: records affected: 1



GetName: 55959 STARLINK-5929

Hit Count: updated at: Tue, 06 Jun 2023 02:12:33 GMT